Tracking 19651 objects as of 23-Apr-2019
HD Live streaming from Space Station
objects crossing your sky now

COSMOS 1823 DEB

Track COSMOS 1823 DEB now!
10-day predictions


NORAD ID: 18733
Int'l Code: 1987-020L
Perigee: 976.6 km
Apogee: 1,106.6 km
Inclination: 73.4 °
Period: 105.9 minutes
Semi major axis: 7412 km
RCS: 0.047 m2 (small)
Launch date: February 20, 1987
Source: Commonwealth of Independent States (former USSR) (CIS)
Launch site: PLESETSK MISSILE AND SPACE COMPLEX (PKMTR)

Note: This is SATELLITE DEBRIS
aabbcc
Your satellite tracking list
Your tracking list is empty




NASA's NSSDC Master Catalog

Two Line Element Set (TLE):
1 18733U 87020L   19113.39332826  .00004555  00000-0  59515-2 0  9996
2 18733  73.4415  93.6361 0087639 224.5671 257.4294 13.60339501491947
Source of the keplerian elements: AFSPC